Content
SEND FEEDBACK

Daily
Averages
Monthly
Summary
United States of America

HUTCHINSON, KANSAS


Home > North America > United States > Kansas
Elevation: 1542 feet     Latitude: 38 03N     Longitude: 097 51W

WEATHER
 
SELECT A DAY
Number of Records: 189,026;   Date Range: 1/1/95 - 8/12/14
 
SHARE

PRINT THIS DATA

[ ← Previous Day ]
WEATHER ALMANAC - JANUARY 23, 2013
[ Next Day → ]
[ °C ]   °F
Weather ElementAverageHighLow
Temperature34.7 °F55.9 °F (3:52 pm)15.1 °F (5:52 am)
Dewpoint19.6 °F27 °F (2:52 pm)10.9 °F (7:52 am)
Humidity58 %88 % (5:52 am)33 % (3:52 pm)
Barometer30.23 in30.36 in (11:52 pm)30.14 in (2:52 pm)
Wind Speed5 mph15 mph (6:52 pm)
Wind Gust26.5 mph (6:52 pm)
Weather ElementAverage
Visibility9.7 mi
Wind DirectionNNE (38.6 °)

Weather ElementTotal
Precipitation---
Heating Degree Days29.5 (Base 65)
Averaged from 22 records on January 23, 2013
WEATHER CONDITIONS BREAKOUT
WIND DIRECTION BREAKOUT
WEATHER BY HOUR - JANUARY 23, 2013
[ °C ]   °F
Local TimeTemperatureDewpointHumidityBarometerVisibilityWind DirectionWind SpeedGust SpeedPrecipitationEventsConditions
2:52 AM18.0 °F12.9 °F81 %30.24 in10.0 miCalmClear
3:52 AM17.1 °F12.9 °F84 %30.22 in10.0 miCalmClear
4:52 AM16.0 °F12.0 °F84 %30.21 in10.0 miCalmClear
5:52 AM15.1 °F12.0 °F88 %30.21 in9.0 miCalmClear
6:52 AM18.0 °F12.9 °F81 %30.24 in9.0 miCalmClear
7:52 AM16.0 °F10.9 °F81 %30.24 in9.0 miCalmClear
8:52 AM26.1 °F19.0 °F75 %30.24 in8.0 miCalmClear
9:52 AM33.1 °F21.0 °F61 %30.22 in8.0 miWSW (250°)4.6 mphClear
10:52 AM39.9 °F23.0 °F51 %30.23 in10.0 miCalmClear
11:52 AM45.0 °F24.1 °F44 %30.21 in10.0 miCalmClear
12:52 PM50.0 °F24.1 °F36 %30.18 in10.0 miVariable3.5 mphClear
1:52 PM53.1 °F26.1 °F35 %30.15 in10.0 miWSW (240°)4.6 mphClear
2:52 PM55.0 °F27.0 °F34 %30.14 in10.0 miCalmClear
3:52 PM55.9 °F27.0 °F33 %30.14 in10.0 miNE (50°)4.6 mphClear
4:52 PM53.1 °F27.0 °F37 %30.17 in10.0 miNE (50°)3.5 mphClear
5:52 PM45.0 °F24.1 °F44 %30.22 in10.0 miNNE (20°)11.5 mph20.7 mphClear
6:52 PM42.1 °F21.9 °F45 %30.25 in10.0 miNE (40°)15.0 mph26.5 mphClear
7:52 PM39.0 °F19.9 °F46 %30.27 in10.0 miNE (40°)15.0 mph21.9 mphClear
8:52 PM35.1 °F21.0 °F57 %30.29 in10.0 miNE (40°)11.5 mph21.9 mphClear
9:52 PM32.0 °F18.0 °F56 %30.33 in10.0 miNNE (30°)15.0 mph25.3 mphClear
10:52 PM30.0 °F18.0 °F61 %30.35 in10.0 miNE (40°)6.9 mph19.6 mphClear
11:52 PM28.0 °F17.1 °F63 %30.36 in10.0 miNE (50°)13.8 mph19.6 mphClear
Hourly data recorded from KHUT, located miles away from Hutchinson, Kansas







STORIES FROM OUR PARTNERS